Location: Elche
(38.2500°N, 0.7000°W)
Time: 14:15:01
(UTC+02:00)

ISS - Visible Passes

Search period start: 20 October 2019 00:00
Search period end: 29 October 2019 23:00
Orbit: 411 x 421 km, 51.6° (Epoch: 20 October)

Date Brightness Start Highest point End Pass type
(mag) Time Alt. Az. Time Alt. Az. Time Alt. Az.
21 Oct -0.4 07:36:24 10° SSE 07:37:31 11° SE 07:38:37 10° ESE visible
23 Oct -2.0 07:33:41 10° SSW 07:36:45 33° SE 07:39:49 10° ENE visible
24 Oct -1.1 06:45:51 10° S 06:48:17 19° SE 06:50:42 10° E visible
25 Oct -0.5 05:59:29 10° SE 05:59:52 10° SE 06:00:15 10° ESE visible
25 Oct -3.8 07:32:46 10° SW 07:36:08 76° NW 07:39:30 10° NE visible
26 Oct -3.3 06:46:39 41° SSW 06:47:31 57° SE 06:50:51 10° ENE visible
27 Oct -1.0 05:00:39 19° E 05:00:39 19° E 05:01:59 10° ENE visible
27 Oct -2.7 06:33:35 16° W 06:35:41 29° NNW 06:38:41 10° NNE visible
28 Oct -3.1 05:47:24 43° N 05:47:24 43° N 05:50:13 10° NE visible
29 Oct -0.7 05:01:05 14° NE 05:01:05 14° NE 05:01:38 10° NE visible
29 Oct -1.7 06:34:00 13° NW 06:35:25 16° NNW 06:37:33 10° NNE visible
